CAPE
340 48 90 462 893 1079 1229 1532 1634 1739 1589 1332 1165 1033 960 825 710 553 425 239 89 41 79 257 475 560 695 545 441 476 297 131 374 651 817 558 672 437 530 612 830 667 470
449 41 29 87 564 1060 1290 1477 1505 1567 1828 1707 1518 1279 1089 1098 1073 914 645 506 482 214 234 89 447 670 593 399 359 378 461 322 87 9 182 296 127 122 100 264 358 614 464
479 75 34 16 78 534 1027 1440 1527 1101 1249 1674 1802 1651 1393 1290 1074 917 841 892 685 298 171 183 559 527 416 387 332 289 381 371 406 224 120 208 206 51 44 110 454 537 252
588 297 212 81 50 215 830 1125 1309 1300 1311 1366 1537 1687 1517 1287 1092 931 761 278 144 122 131 534 488 188 34 167 362 365 343 508 598 508 342 392 704 125 98 14 339 417 297
768 448 393 212 110 257 805 993 1024 1017 998 1168 1419 1446 1581 1191 828 723 501 402 366 562 803 364 241 307 186 93 159 337 357 473 572 423 290 290 308 670 53 0 204 376 344
966 573 596 540 325 213 515 737 790 701 729 605 833 1491 1502 1246 979 665 188 275 356 851 917 623 231 27 155 54 0 0 413 584 492 309 253 359 477 757 183 0 22 207 335
1307 775 735 733 663 562 322 311 448 475 527 878 949 960 1084 1270 1197 1077 956 778 895 653 373 178 133 77 0 64 145 151 531 943 862 623 402 529 656 739 606 93 47 100 105
1507 1195 968 781 756 657 475 372 403 509 630 776 916 1041 831 1006 1229 1125 1022 859 811 404 76 2 0 0 0 0 92 306 560 933 1010 775 475 320 190 571 746 442 229 521 254
1709 1772 1298 1165 1150 863 589 402 407 465 651 746 906 961 972 789 514 484 568 570 567 451 436 421 372 304 316 245 226 245 388 414 381 287 252 147 514 686 627 755 381 625 278
1093 1104 1525 1463 1263 852 436 287 417 414 537 762 836 912 720 483 432 330 220 246 224 202 250 193 281 323 237 178 154 134 167 123 80 10 0 123 778 542 583 632 446 513 747
427 638 632 887 1298 911 526 362 609 608 641 701 642 588 704 680 408 144 67 0 0 0 0 0 0 33 1 0 0 5 0 0 0 0 0 144 467 411 486 455 439 602 740
0 15 47 69 643 842 941 527 853 850 809 844 852 620 620 766 281 92 86 25 1 0 0 0 0 0 0 0 0 0 0 0 0 0 0 115 206 260 439 437 227 472 568
0 0 0 264 711 811 799 1075 944 700 731 578 515 494 330 227 125 166 87 113 32 0 0 0 0 0 0 0 0 0 0 0 0 1 0 29 141 256 329 263 200 346 443
0 0 0 30 319 414 191 683 552 564 328 408 323 238 1 94 9 88 16 6 0 0 0 0 0 0 0 0 0 0 0 0 0 0 0 0 0 28 118 206 388 334 264
0 0 0 0 118 186 8 2 0 0 0 0 0 0 0 0 0 0 0 0 0 0 0 0 0 0 0 0 0 0 0 0 0 0 0 0 1 0 8 102 190 345 512
0 0 0 0 0 0 0 0 0 0 0 0 0 0 0 0 0 0 0 0 0 0 0 0 0 0 0 0 0 1 0 0 0 0 0 0 2 9 25 11 9 157 254
0 0 0 0 0 0 0 0 0 0 0 0 0 0 0 0 0 0 0 0 0 0 0 0 0 0 0 0 0 0 0 1 0 0 4 28 38 26 38 12 0 0 6
0 0 0 0 0 0 0 0 0 0 0 0 0 0 0 0 0 0 0 0 0 0 0 0 0 0 0 0 0 0 0 0 0 0 0 0 77 98 44 29 3 0 0
0 0 0 0 0 0 0 0 0 0 0 0 0 0 0 0 0 0 0 0 0 0 0 0 0 0 0 0 0 0 0 0 0 0 0 0 0 45 86 62 66 55 27
0 0 0 0 0 0 0 0 0 0 0 0 0 0 0 0 0 0 0 0 0 0 0 0 0 0 0 0 0 0 0 0 0 0 0 0 0 0 8 90 74 38 30
0 0 0 0 0 0 0 0 0 0 0 0 0 0 0 0 0 0 0 0 0 0 0 0 0 0 0 0 0 0 0 0 0 0 0 0 0 0 0 5 81 33 6
0 0 0 0 0 0 0 0 0 0 0 0 0 0 0 0 0 0 0 0 0 0 0 0 0 0 0 0 0 0 0 0 0 0 0 0 0 0 0 0 0 0 5
0 0 0 0 0 0 0 0 0 0 0 0 0 0 0 0 0 0 0 0 0 0 0 0 0 0 0 0 0 0 0 0 0 0 0 0 0 0 0 0 0 0 0
0 0 0 0 0 0 0 0 0 0 0 0 0 0 0 0 0 0 0 0 0 0 0 0 0 0 0 0 0 0 0 0 0 0 0 0 0 0 0 0 0 0 0
0 0 0 0 0 0 0 0 0 0 0 0 0 0 0 0 0 0 0 0 0 0 0 0 0 0 0 0 0 0 0 0 0 0 0 0 0 0 0 0 0 0 0
0 0 0 0 0 0 0 0 0 0 0 0 0 0 0 0 0 0 0 0 0 0 0 0 0 0 0 0 0 0 0 0 0 0 0 0 0 0 0 0 0 0 0
CIN
-199 -373 -371 -180 -105 -64 -41 -10 -23 -10 -25 -64 -95 -96 -86 -110 -119 -150 -215 -260 -286 -226 -192 -91 -57 -34 -25 -51 -66 -57 -62 -82 -70 -53 -26 -17 -25 -34 -37 -54 -34 -13 -18
-195 -441 -486 -439 -252 -126 -47 -33 -40 -31 -5 -8 -21 -52 -70 -55 -78 -94 -145 -133 -165 -163 -176 -281 -72 -46 -33 -23 -36 -59 -54 -69 -87 -138 -71 -57 -62 -88 -120 -99 -61 -24 -10
-275 -458 -539 -581 -460 -266 -146 -47 -57 -144 -92 -20 -6 -13 -23 -25 -65 -102 -116 -103 -120 -252 -329 -208 -156 -105 -82 -34 -27 -50 -48 -59 -60 -67 -89 -88 -78 -141 -213 -197 -77 -47 -68
-246 -373 -414 -485 -546 -428 -221 -168 -119 -112 -103 -73 -35 -19 -21 -35 -48 -80 -104 -278 -379 -334 -297 -169 -166 -180 -235 -65 -6 -28 -43 -46 -45 -48 -65 -60 -37 -115 -160 -293 -81 -57 -65
-198 -348 -380 -448 -509 -438 -241 -200 -218 -208 -203 -136 -60 -52 -32 -52 -119 -129 -140 -225 -248 -131 -86 -178 -205 -173 -162 -136 -26 -6 -23 -37 -51 -53 -66 -54 -46 -23 -190 0 -105 -53 -44
-186 -326 -323 -331 -412 -445 -331 -289 -283 -284 -251 -254 -172 -58 -37 -61 -97 -126 -300 -261 -215 -65 -25 -72 -167 -269 -128 -199 0 -1 -42 -30 -75 -80 -63 -47 -32 -21 -92 0 -244 -115 -61
-109 -236 -251 -251 -277 -315 -396 -386 -323 -294 -256 -165 -124 -103 -77 -45 -44 -58 -54 -78 -51 -88 -122 -210 -208 -216 0 -165 -142 -86 -22 -11 -37 -77 -68 -37 -11 -29 -42 -148 -210 -143 -162
-76 -136 -179 -225 -239 -259 -297 -318 -296 -244 -192 -131 -70 -56 -76 -55 -8 -5 -8 -31 -32 -94 -235 -64 0 0 0 0 -156 -21 -12 -14 -51 -67 -78 -74 -113 -21 -28 -44 -94 -25 -86
-56 -68 -125 -154 -165 -198 -226 -258 -245 -218 -153 -123 -67 -40 -53 -55 -84 -81 -20 -24 -29 -29 -47 -46 -65 -86 -69 -71 -29 -24 -20 -35 -46 -109 -86 -125 -50 -36 -27 -34 -59 -15 -81
-77 -85 -58 -92 -141 -180 -260 -309 -216 -186 -139 -77 -64 -34 -73 -91 -91 -110 -150 -102 -56 -30 -32 -56 -42 -40 -51 -46 -33 -45 -37 -68 -107 -116 0 -99 -24 -31 -13 -19 -38 -27 -9
-206 -184 -144 -123 -99 -153 -214 -258 -152 -145 -113 -79 -78 -73 -48 -38 -89 -166 -186 0 0 0 0 0 0 -70 -60 0 0 -200 0 0 0 0 0 -39 -14 -25 -19 -27 -37 -31 -7
-90 -146 -322 -275 -134 -83 -59 -173 -79 -88 -94 -83 -70 -82 -70 -44 -145 -202 -178 -213 -54 0 0 0 0 0 0 0 0 0 0 0 0 0 0 -43 -20 -24 -17 -29 -52 -29 -16
0 0 0 -240 -141 -104 -65 -33 -40 -64 -63 -79 -96 -98 -141 -189 -205 -188 -215 -177 -190 0 0 0 0 0 0 0 0 0 0 0 0 -130 0 -45 -34 -17 -7 -24 -36 -32 -20
0 0 0 -346 -232 -181 -270 -104 -119 -109 -167 -149 -140 -153 -26 -197 -265 -186 -266 -260 0 0 0 0 0 0 0 0 0 0 0 0 0 0 0 0 0 -86 -26 -1 0 -8 -12
0 0 0 0 -300 -254 -230 -263 0 0 0 0 0 0 0 -82 0 0 0 0 0 0 0 0 0 0 0 0 0 0 0 0 0 0 0 0 -32 -16 -108 -16 -1 0 0
0 0 0 0 0 0 0 0 0 0 0 0 0 0 0 0 0 0 0 0 0 0 0 0 0 0 0 0 -1 -1 0 0 0 0 -30 0 -31 -61 -50 -77 -50 -1 0
0 0 0 0 0 0 0 0 0 0 0 0 0 0 0 0 0 0 0 0 0 0 0 0 0 0 0 0 0 0 0 -7 0 0 -5 -50 -58 -31 -32 -29 0 0 -61
0 0 0 0 0 0 0 0 0 0 0 0 0 0 0 0 0 0 0 0 0 0 0 0 0 0 0 0 0 0 0 0 0 0 0 0 -8 -23 -26 -21 -34 0 0
0 0 0 0 0 0 0 0 0 0 0 0 0 0 0 0 0 0 0 0 0 0 0 0 0 0 0 0 0 0 0 0 0 0 0 0 0 -11 -16 -43 -35 -30 -58
0 0 0 0 0 0 0 0 0 0 0 0 0 0 0 0 0 0 0 0 0 0 0 0 0 0 0 0 0 0 0 0 0 0 0 0 0 0 -11 -29 -20 -51 -79
0 0 0 0 0 0 0 0 0 0 0 0 0 0 0 0 0 0 0 0 0 0 0 0 0 0 0 0 0 0 0 0 0 0 0 0 0 0 0 -3 -5 -23 -102
0 0 0 0 0 0 0 0 0 0 0 0 0 0 0 0 0 0 0 0 0 0 0 0 0 0 0 0 0 0 0 0 0 0 0 0 0 0 0 0 0 0 -3
0 0 0 0 0 0 0 0 0 0 0 0 0 0 0 0 0 0 0 0 0 0 0 0 0 0 0 0 0 0 0 0 0 0 0 0 0 0 0 0 0 0 0
0 0 0 0 0 0 0 0 0 0 0 0 0 0 0 0 0 0 0 0 0 0 0 0 0 0 0 0 0 0 0 0 0 0 0 0 0 0 0 0 0 0 0
0 0 0 0 0 0 0 0 0 0 0 0 0 0 0 0 0 0 0 0 0 0 0 0 0 0 0 0 0 0 0 0 0 0 0 0 0 0 0 0 0 0 0
0 0 0 0 0 0 0 0 0 0 0 0 0 0 0 0 0 0 0 0 0 0 0 0 0 0 0 0 0 0 0 0 0 0 0 0 0 0 0 0 0 0 0
Wind_Speed
16 16 15 12 13 15 16 17 17 16 14 14 14 12 12 11 10 9 10 9 11 14 16 18 20 21 20 18 18 17 15 14 13 13 11 9 8 7 8 8 8 6 5
15 15 13 13 14 15 17 18 17 18 16 15 14 13 12 12 10 9 9 7 8 10 18 19 21 21 23 23 20 19 19 18 18 17 15 14 12 9 9 8 11 6 5
14 15 14 14 15 15 16 18 19 19 19 18 16 13 12 11 9 10 10 11 15 16 19 22 17 18 19 25 24 22 22 20 19 20 19 16 15 14 10 9 10 4 4
16 13 14 15 16 17 17 18 19 19 19 19 18 15 12 11 10 10 11 16 19 21 19 18 15 14 18 22 31 26 25 22 22 22 22 19 18 15 12 9 7 6 5
15 14 15 15 16 17 18 19 20 20 20 20 19 17 14 14 14 15 16 20 20 20 14 16 14 11 14 13 27 29 29 26 25 26 26 23 24 15 13 12 10 8 6
14 15 15 15 17 18 19 20 20 21 20 19 19 18 16 16 15 16 17 17 17 18 14 12 12 10 8 7 8 32 34 30 27 27 29 26 18 12 12 14 13 13 11
13 14 14 15 16 18 19 20 20 20 20 19 19 19 17 17 16 17 17 16 15 15 15 14 10 8 10 7 7 0 22 28 27 28 30 27 22 8 11 13 13 14 14
13 13 14 15 16 18 19 20 20 20 20 20 19 18 18 18 17 18 17 18 16 17 17 17 14 13 14 9 10 3 4 8 8 21 30 29 28 12 12 12 12 13 12
12 12 13 14 16 18 19 19 19 19 19 19 18 18 17 17 18 18 18 17 17 17 17 17 16 14 15 14 12 10 11 11 15 13 16 25 22 12 13 14 14 13 11
15 16 15 15 16 16 16 17 18 18 17 17 17 16 15 16 17 17 17 17 17 16 15 15 15 15 16 17 17 17 18 20 24 25 23 21 13 15 17 17 17 17 14
15 17 17 19 16 14 14 14 16 16 15 16 17 15 14 14 16 16 17 17 18 18 18 17 16 14 13 15 17 19 23 26 27 28 27 22 18 21 19 18 18 17 16
14 17 17 18 16 13 11 12 15 14 13 13 14 14 13 13 13 13 14 14 15 15 16 16 17 16 14 12 16 18 20 23 28 28 28 25 21 21 21 18 20 20 20
14 15 15 15 14 16 16 13 14 15 14 14 14 14 13 13 14 12 13 15 15 17 17 17 19 20 20 19 19 22 23 24 26 30 30 28 28 27 27 25 24 22 23
13 13 14 16 15 15 18 13 14 13 14 14 14 14 15 14 15 16 15 16 16 17 17 17 18 19 21 24 23 23 20 17 27 32 35 35 34 35 36 35 31 28 25
12 12 13 14 15 14 15 16 16 16 16 16 15 16 18 13 14 14 15 15 16 17 20 21 20 20 20 20 22 24 22 20 20 31 36 40 40 39 39 39 39 35 31
10 9 11 13 12 12 13 14 15 15 16 17 17 18 19 17 18 15 16 16 17 18 21 22 23 23 24 24 23 22 23 20 19 17 22 30 40 43 42 41 41 41 38
6 8 11 13 11 13 13 16 15 14 14 14 15 17 18 17 16 17 17 19 18 20 19 21 22 24 25 25 26 26 25 26 29 28 20 17 25 37 38 38 40 40 41
7 8 10 11 9 11 12 14 13 11 13 13 14 15 16 18 18 18 18 19 21 21 20 23 24 27 28 29 29 29 27 29 31 33 32 29 25 23 36 39 40 39 39
8 9 11 12 12 12 14 14 16 14 15 14 14 14 15 17 18 19 18 19 20 21 22 24 27 27 29 32 33 32 32 33 33 34 35 36 36 33 29 33 35 35 38
10 12 14 13 13 14 15 16 19 18 19 21 16 16 15 16 16 19 19 18 19 21 22 25 27 28 30 33 36 37 36 35 37 36 35 34 37 37 38 33 34 38 37
13 15 16 16 16 16 19 20 20 21 21 20 17 19 16 16 17 18 20 20 20 22 22 24 27 29 32 32 36 38 39 38 36 38 33 33 33 36 33 35 32 32 36
16 17 18 18 17 17 17 18 19 21 20 20 20 19 15 17 18 20 21 22 22 22 24 26 27 29 30 33 35 39 41 43 38 36 41 39 39 36 38 36 33 33 35
16 17 18 18 18 17 16 18 19 21 22 22 24 22 19 18 20 20 21 21 21 23 24 25 26 29 33 31 32 35 42 44 46 40 40 41 41 42 40 40 38 36 35
18 20 19 20 21 22 20 20 20 22 24 23 24 23 23 22 22 22 22 23 23 22 22 25 27 30 32 35 37 36 37 42 47 53 41 41 43 43 42 40 40 39 38
24 23 20 21 24 26 25 23 22 24 25 26 25 25 26 25 22 23 21 21 21 22 25 29 31 32 34 38 41 41 41 43 45 49 56 49 46 44 44 44 44 44 40
27 25 24 25 28 28 27 25 25 25 25 26 25 24 24 22 21 20 19 19 20 24 29 32 33 38 41 41 41 41 43 44 47 49 53 52 51 47 46 47 47 47 45
Wind_Direction
10 34 34 355 351 355 357 0 3 2 3 8 12 15 19 19 16 9 21 38 22 359 340 317 306 303 304 304 305 301 302 304 309 313 318 320 327 343 333 321 302 336 338
26 28 7 353 352 355 2 4 4 10 4 9 7 3 10 5 5 3 15 16 23 359 325 322 308 301 294 292 295 292 289 291 292 291 298 297 304 320 320 312 290 324 333
39 29 17 8 4 2 357 7 8 5 12 19 1 13 11 11 9 1 4 5 359 349 340 333 323 306 304 293 285 281 278 281 284 280 286 289 288 293 309 306 302 340 314
45 21 13 13 11 11 8 9 9 10 11 9 3 8 5 354 349 349 344 335 332 335 338 347 352 332 308 310 273 269 268 269 270 271 272 277 280 285 299 307 306 308 304
34 24 16 12 11 12 11 14 11 7 4 1 1 3 3 343 334 328 330 327 331 332 342 345 347 350 338 339 305 271 261 261 259 257 255 265 269 279 290 293 285 287 295
20 23 28 19 12 11 10 9 6 7 8 3 359 354 351 348 342 339 340 335 335 335 340 339 341 350 2 6 320 289 261 249 255 254 249 259 275 280 288 286 280 274 277
23 24 20 17 13 8 6 6 6 6 7 3 356 351 348 343 343 344 344 342 342 344 340 336 338 328 334 343 353 219 199 234 261 257 253 261 271 284 290 285 281 274 273
35 29 20 14 16 12 7 4 1 359 0 358 356 355 349 349 351 352 354 352 350 343 343 337 343 338 336 345 351 342 321 309 315 282 258 270 277 276 285 284 280 277 272
36 21 16 11 8 6 5 6 1 357 355 354 354 358 2 4 1 1 358 359 357 357 353 351 347 348 341 341 343 342 320 313 302 295 294 285 286 271 278 280 281 276 271
13 17 12 7 10 10 12 15 11 8 5 5 3 4 8 3 6 7 5 4 6 6 5 1 355 348 338 333 328 322 314 304 293 287 284 288 285 275 278 279 279 277 270
11 6 358 2 8 8 10 12 11 10 15 18 18 23 25 19 21 24 28 29 27 25 21 18 14 7 356 342 332 322 308 298 293 286 283 280 281 274 275 275 277 274 267
20 11 4 9 17 34 50 61 35 41 44 47 48 50 56 48 41 38 29 24 18 15 13 8 6 9 6 356 337 331 326 305 288 286 287 276 277 276 276 276 275 271 265
76 51 46 40 50 35 41 65 57 51 54 38 27 28 30 20 10 17 14 9 6 360 358 359 355 345 336 333 328 327 325 315 289 281 282 283 278 274 275 275 276 273 267
60 58 44 34 33 29 20 34 27 33 21 21 15 10 5 4 357 352 351 351 351 352 350 350 349 350 344 336 330 320 325 326 298 283 278 278 275 272 272 272 273 273 270
38 37 27 24 19 14 10 6 4 359 1 358 356 352 351 355 353 351 349 349 347 345 343 338 339 339 338 338 333 329 328 321 317 289 282 274 273 272 270 270 270 272 271
24 30 22 14 15 12 7 3 357 354 351 347 346 344 341 346 344 345 342 340 340 340 338 337 336 334 331 329 328 327 322 323 320 316 301 288 276 273 271 269 270 268 269
38 24 11 7 8 0 359 352 349 350 348 347 347 345 341 341 339 339 338 338 337 337 339 340 338 335 332 331 326 324 321 316 308 306 310 302 300 277 272 271 271 270 267
39 29 16 12 11 4 358 353 351 348 344 341 341 341 339 337 338 335 335 334 333 334 336 335 334 329 326 325 323 321 319 315 309 302 297 298 300 298 277 273 270 271 268
33 25 11 7 4 357 350 349 343 337 339 335 333 334 334 332 331 331 330 332 334 331 328 330 330 329 325 320 317 315 314 312 308 303 296 289 290 291 291 281 272 272 270
20 14 6 1 354 350 348 343 339 335 331 329 322 322 327 328 328 327 328 327 329 326 325 326 326 326 324 321 315 310 310 308 306 304 298 294 289 287 284 286 281 271 268
10 5 359 353 349 346 338 336 333 328 325 324 320 319 314 319 321 321 321 323 322 323 326 327 326 324 321 322 317 312 307 305 304 300 301 298 295 291 290 285 284 280 272
359 355 351 344 340 337 334 332 331 329 324 318 316 315 307 311 312 312 314 313 316 318 320 323 325 324 323 322 317 313 308 301 302 299 294 293 289 288 286 284 285 283 280
353 350 346 343 340 334 326 327 328 326 323 324 323 315 307 304 306 306 310 313 313 315 316 319 322 321 320 321 320 316 310 302 298 298 293 289 287 284 282 281 279 277 280
350 347 346 346 342 337 329 319 315 317 317 314 312 311 309 302 301 300 304 307 310 314 317 321 323 319 318 315 316 314 310 304 297 291 292 289 285 283 281 280 278 277 275
353 352 350 346 342 338 334 327 315 311 313 315 315 313 315 315 309 302 306 311 315 318 320 318 317 315 315 312 311 311 308 304 300 292 284 286 284 282 280 277 275 275 275
348 350 347 342 339 337 332 326 319 312 309 309 310 310 311 315 319 317 314 314 315 315 316 315 314 314 312 309 310 309 306 304 299 294 287 284 282 280 279 277 276 274 274